Dewpoint
60 55 52 50 47 44 36 37 20 27 25 18 18 21 16 23 22 20 21 21 21 24 25 36 27 25 21 19 21 29 39 25 27 20 21 31 46 55 58 61 68 69 68 69 68 68 68 70 71 72 71 71 72 72 72 72 72 72 72 72 71 71 71 70 70 70 70 70 70 70 70 70 69 69 68 67 68 68 68 67 67 66 66 64 63 66 66 66 66 66 67 68 67 67 67 68 68
55 52 49 47 45 39 34 34 26 24 22 19 19 21 20 23 18 19 19 22 24 35 40 45 46 47 47 48 47 43 38 50 31 44 42 41 54 62 65 63 69 70 70 70 69 69 69 70 71 72 72 72 72 72 72 72 72 72 72 71 71 71 70 69 70 70 70 69 69 69 69 69 70 70 68 68 68 68 68 67 66 66 66 63 63 65 66 66 66 66 66 67 66 66 67 67 68
53 50 45 45 37 37 35 30 20 21 18 15 18 20 23 19 17 19 21 21 26 38 38 33 33 32 38 39 36 30 31 48 52 47 53 54 58 60 65 66 68 70 71 71 70 69 69 70 71 71 71 72 72 72 72 72 72 72 72 71 71 71 70 69 69 69 69 69 69 69 69 69 69 69 68 68 68 67 67 67 66 65 65 63 63 65 65 66 65 66 66 66 66 66 66 66 67
52 54 44 43 36 37 30 29 24 19 18 18 18 21 21 21 20 20 21 23 34 32 25 26 35 36 37 36 39 41 42 49 52 50 52 52 54 57 63 67 69 70 71 71 71 70 70 69 70 71 72 71 71 71 72 72 72 72 71 71 70 70 70 69 69 69 69 69 69 69 70 70 69 67 67 67 67 67 67 67 66 65 65 63 62 64 66 65 65 65 65 65 65 65 65 66 67
50 53 48 42 35 30 29 26 22 24 16 19 17 22 31 26 19 22 23 24 26 23 23 27 36 37 36 36 36 34 40 44 44 49 52 54 56 58 61 70 70 71 71 71 71 70 70 69 70 70 71 71 71 71 72 72 71 71 71 71 70 70 70 70 69 69 69 69 69 69 69 69 68 68 68 67 67 67 67 66 66 66 64 62 61 64 65 66 65 65 65 65 64 64 65 67 67
46 45 46 37 29 32 22 19 20 18 21 22 19 19 24 26 20 22 20 18 18 20 23 27 32 34 43 47 44 44 45 41 42 52 54 57 59 59 63 70 70 70 71 71 71 70 69 68 70 70 70 70 71 71 71 71 71 71 71 70 70 70 70 70 70 70 70 70 69 69 69 69 68 68 68 67 66 67 67 66 66 65 64 61 61 63 65 66 66 65 65 64 64 64 65 66 67
41 35 37 31 31 31 23 23 19 20 20 23 21 22 24 23 22 21 18 19 20 26 25 29 39 34 33 40 39 49 50 51 52 54 56 57 59 61 64 70 70 70 71 71 70 69 68 68 69 70 71 70 70 71 71 71 71 71 71 70 70 70 70 70 70 70 70 70 70 69 69 68 68 68 68 67 67 66 66 65 65 65 63 60 59 62 64 66 65 65 64 63 63 65 65 66 67
46 34 37 27 25 29 22 22 19 24 18 23 23 24 22 23 23 17 17 21 20 22 34 37 26 26 26 39 34 48 48 52 55 55 57 59 59 61 68 70 70 70 71 71 71 69 69 68 68 70 71 70 70 71 71 71 71 71 71 70 70 70 70 70 70 70 69 69 69 69 69 69 68 68 68 67 66 66 66 65 65 64 63 60 59 60 63 65 65 65 65 63 64 65 65 66 67
36 35 38 30 21 26 22 20 19 23 22 22 21 27 41 24 20 16 18 18 20 23 32 33 28 20 22 37 41 45 48 50 44 55 59 59 59 64 69 70 69 69 70 71 71 70 68 68 68 70 70 71 71 70 71 71 71 71 71 70 70 70 70 70 70 70 69 69 69 69 69 68 67 68 67 67 66 66 65 65 64 64 62 60 59 61 63 65 65 65 65 64 64 65 65 66 66
32 29 24 24 28 20 22 17 18 18 20 21 21 20 24 21 18 20 16 17 20 25 29 25 24 20 28 31 38 42 52 43 44 58 59 60 61 66 69 69 69 70 70 70 70 70 69 68 68 68 69 70 71 71 71 71 71 71 70 70 70 70 70 70 69 69 69 69 69 69 69 68 68 68 67 67 66 66 66 65 64 63 61 59 59 61 63 64 65 64 64 64 64 65 65 65 65
25 34 34 25 22 17 19 16 17 20 18 21 20 21 22 20 16 16 20 17 21 24 26 29 25 34 35 35 38 44 40 43 57 59 61 62 64 67 68 68 69 70 70 70 70 70 70 69 67 68 68 69 69 71 71 71 71 71 70 70 70 70 70 70 69 69 69 69 69 69 68 68 68 67 67 67 66 66 66 65 65 63 59 58 59 61 63 63 63 63 63 62 62 63 62 61 61
23 29 32 23 20 19 20 19 19 22 23 21 18 20 23 19 20 16 19 18 20 23 23 28 24 33 31 30 33 39 36 50 55 56 61 63 65 67 68 69 69 70 70 70 70 70 70 70 69 69 67 67 68 69 70 70 70 70 71 70 70 70 69 70 69 69 69 69 69 69 68 68 68 67 68 67 66 66 66 65 64 62 59 57 57 60 61 62 61 61 61 60 60 59 57 56 56
25 33 25 19 17 20 23 18 18 34 20 19 19 19 19 16 15 15 18 20 20 20 19 23 28 27 26 30 34 32 41 48 44 51 61 63 64 66 67 68 69 69 69 70 70 70 70 70 70 70 68 66 66 67 68 67 68 70 70 70 70 70 70 70 69 69 69 69 69 69 69 68 68 68 68 68 66 66 66 64 63 61 57 55 56 59 60 60 60 59 59 58 57 54 50 50 53
31 32 28 21 25 22 19 20 20 18 17 21 21 22 20 17 17 17 20 19 19 18 21 24 29 27 26 25 26 33 36 45 47 59 61 62 63 65 65 66 67 67 68 69 69 69 70 70 70 70 69 69 68 66 65 67 68 69 69 69 69 69 69 70 70 70 69 69 69 69 68 68 68 68 68 68 66 66 66 64 63 60 57 55 56 58 58 57 57 58 57 57 55 53 50 51 53
26 33 26 24 19 18 19 18 18 20 18 19 19 20 20 22 20 20 18 18 18 21 25 27 30 22 17 21 20 31 38 42 58 59 59 59 61 61 62 63 63 63 64 65 66 67 65 68 69 69 69 70 69 69 69 67 66 67 68 68 68 68 69 69 69 68 68 69 68 67 67 66 65 66 67 67 67 66 66 65 63 62 60 58 56 55 55 54 55 57 57 56 55 54 52 53 54
32 27 27 21 16 19 17 19 23 18 17 20 21 21 20 21 22 20 20 20 22 29 27 24 28 21 23 22 24 26 34 49 59 58 57 57 57 57 58 58 59 58 58 60 59 58 61 64 66 68 69 69 69 69 68 68 65 65 66 66 66 68 68 68 68 67 66 66 65 65 64 64 63 63 63 64 64 65 64 64 64 63 61 60 58 56 55 54 53 54 56 57 57 56 55 55 54
36 30 19 20 14 19 17 19 19 15 21 22 22 20 18 20 23 24 25 24 22 23 29 30 26 31 26 24 27 32 40 58 57 56 56 57 59 58 58 58 58 58 57 56 56 56 57 59 61 64 66 69 69 69 68 68 67 63 64 63 65 66 67 66 67 64 61 60 61 60 62 65 65 64 64 64 61 62 61 62 64 63 62 60 59 58 57 55 54 53 54 54 54 53 52 53 53
31 22 20 17 22 18 22 19 19 23 18 18 20 20 19 19 21 22 25 23 26 25 27 27 29 31 31 30 37 43 55 59 56 56 54 55 56 58 58 56 60 59 56 56 55 55 56 56 58 61 62 65 67 68 69 68 67 66 67 66 66 65 64 63 64 65 64 64 60 63 66 65 65 65 64 64 62 61 61 61 62 64 63 63 62 60 58 56 55 55 56 55 53 51 48 40 42
27 25 22 17 19 20 23 22 20 18 18 18 20 21 20 19 21 22 20 20 23 22 23 26 26 28 33 35 44 54 58 57 55 54 54 54 56 58 58 55 56 54 56 55 55 54 54 55 57 57 59 59 63 67 68 67 67 67 67 67 66 64 65 65 66 65 65 65 65 66 65 65 65 65 64 63 62 59 61 61 62 63 64 63 63 62 60 57 56 56 55 54 52 49 42 41 40
29 23 15 21 22 22 22 23 22 20 20 19 20 22 20 20 21 28 20 20 23 21 21 22 24 26 30 34 38 52 57 55 52 52 53 53 54 57 56 55 55 55 56 55 54 54 54 54 55 55 57 56 61 65 68 67 67 67 67 67 67 66 66 66 66 66 65 65 65 66 66 65 65 64 61 60 62 62 61 60 60 61 61 61 60 59 58 58 57 56 55 53 51 47 44 42 41
23 23 20 21 24 22 22 23 23 23 20 20 20 23 20 21 22 21 20 20 21 22 23 21 21 25 29 33 35 45 54 53 50 50 51 50 49 50 54 55 56 54 52 51 52 53 53 53 54 54 55 56 58 62 67 67 67 67 67 67 67 66 66 65 65 65 65 65 66 66 66 65 65 64 63 63 63 63 63 63 62 62 61 59 58 57 55 53 52 51 50 50 48 47 45 44 42
25 18 21 23 25 22 22 24 25 23 22 21 21 19 20 23 23 21 20 18 18 20 21 23 22 23 29 32 34 41 53 53 50 49 49 49 48 49 46 47 48 49 50 52 53 52 52 53 53 53 54 56 56 60 64 66 67 67 66 67 66 66 65 65 65 65 65 65 66 66 65 65 65 64 63 63 63 64 63 63 62 62 61 59 58 57 55 53 52 51 50 49 49 48 47 46 45
18 21 22 22 23 21 23 25 26 22 21 20 20 21 23 22 22 23 20 19 19 23 23 25 24 25 30 33 34 39 49 51 50 49 48 47 46 46 46 46 47 48 48 51 50 51 52 52 53 53 54 55 56 57 59 63 66 67 67 66 66 65 66 65 65 65 65 65 65 65 65 65 64 64 63 63 63 64 63 63 62 62 61 59 58 57 55 54 53 52 51 50 49 48 48 47 45
23 19 22 23 24 22 26 25 26 23 21 20 21 23 22 22 20 22 21 21 21 22 28 30 29 27 34 34 34 36 47 51 51 49 47 46 45 45 46 47 47 46 47 49 49 50 50 52 52 52 54 56 56 56 59 63 65 67 66 65 66 65 65 65 65 65 65 65 65 65 64 64 64 63 63 63 64 64 63 63 62 62 61 60 60 57 56 56 54 54 52 51 50 49 48 47 46
23 22 25 24 24 23 25 25 23 23 23 24 24 22 22 22 21 22 21 22 23 29 31 31 30 32 34 34 35 35 38 43 46 46 43 42 43 44 44 44 46 46 48 48 47 47 48 49 51 53 55 56 57 56 61 63 65 66 66 66 66 64 65 64 64 64 63 62 64 64 63 64 63 62 62 62 63 64 64 63 63 61 61 61 60 59 58 56 55 54 53 52 50 50 48 48 46
26 24 25 25 24 26 25 25 25 24 26 24 22 22 23 24 24 22 22 22 25 30 31 32 32 33 34 34 35 35 37 40 42 43 43 42 43 45 44 46 46 47 48 47 46 46 46 48 50 52 55 56 57 60 62 63 65 64 65 65 64 62 63 63 63 63 62 62 62 63 63 63 63 63 62 61 61 62 62 61 61 61 61 61 60 58 58 57 56 55 54 53 51 50 49 48 45
25 25 25 24 24 26 26 24 24 26 26 24 21 21 22 24 22 19 23 26 32 30 31 32 32 32 33 34 35 36 37 39 40 41 42 42 43 45 45 44 46 48 46 47 46 46 47 49 50 51 52 55 57 62 63 63 63 62 61 63 63 62 62 61 62 61 61 61 61 61 62 62 62 62 62 61 60 60 60 59 59 59 59 59 58 58 58 57 56 55 54 53 52 51 49 47 43
25 25 25 24 25 27 26 25 24 24 23 24 22 21 23 24 23 20 21 29 30 29 31 31 31 31 32 33 35 36 37 38 40 42 42 42 43 45 45 46 46 46 47 47 46 46 48 50 51 51 54 56 59 62 62 62 61 60 60 60 60 60 61 61 60 60 59 60 60 61 59 60 61 61 61 61 60 59 58 58 58 58 58 58 58 57 56 56 55 53 53 52 52 50 49 45 42
25 24 22 23 25 24 25 25 25 24 23 24 23 22 22 23 21 23 25 29 29 29 30 31 31 31 32 33 34 35 36 37 39 42 42 43 42 44 46 45 46 47 46 46 47 48 50 51 50 53 56 56 60 61 60 59 58 58 58 58 57 58 58 58 58 58 58 58 59 59 59 59 59 60 59 59 58 58 57 57 56 56 56 56 55 54 53 52 52 50 49 50 50 49 46 44 42
25 25 24 23 24 22 24 27 24 23 24 24 24 20 23 23 22 23 28 28 29 28 29 30 30 31 31 32 33 34 35 36 38 40 42 42 42 43 45 44 45 47 47 46 47 49 51 52 52 55 57 58 60 59 57 56 56 55 55 55 55 56 57 56 56 57 57 57 57 58 58 58 58 58 58 58 57 57 56 56 55 54 54 53 53 51 51 52 51 49 48 50 50 45 43 40 38
22 24 27 24 20 21 24 26 24 23 25 24 24 21 21 22 23 25 26 28 28 27 28 29 29 30 30 31 32 33 33 35 37 38 40 41 41 41 43 43 45 46 46 47 48 50 50 51 53 56 57 58 56 56 55 54 53 53 53 54 54 55 55 55 55 54 55 55 56 55 56 57 57 57 57 56 56 56 55 53 52 52 51 50 51 51 51 51 50 49 50 50 49 43 41 40 38
28 21 21 25 20 23 26 31 24 23 23 24 23 23 21 22 23 24 25 28 27 26 26 27 28 29 29 30 31 32 33 34 35 36 39 40 41 42 43 44 45 46 47 47 48 50 49 50 51 54 54 54 54 54 54 53 52 51 51 51 52 53 54 54 54 53 52 53 54 54 53 54 55 55 55 55 54 53 53 51 49 47 48 48 49 49 49 46 45 45 46 48 44 42 40 38 35
26 20 21 21 23 23 23 23 25 26 22 23 23 21 22 21 22 24 28 27 27 26 26 26 26 27 28 29 29 31 32 32 33 34 36 38 40 42 42 44 45 46 47 48 49 50 49 50 50 52 52 52 51 52 52 52 51 51 50 50 50 52 53 53 53 51 51 50 50 50 50 50 51 52 52 52 51 49 50 48 47 42 43 47 46 46 46 41 41 41 41 42 42 40 37 34 30
23 24 21 25 22 23 22 26 27 26 22 21 22 21 21 22 22 23 26 28 27 26 26 26 26 26 27 28 28 29 30 31 32 32 34 37 39 41 42 45 46 46 47 48 49 49 49 49 50 51 50 50 50 50 50 49 49 49 48 48 48 49 50 48 49 49 49 49 49 48 48 47 48 49 49 49 48 46 44 42 41 38 35 37 34 33 32 35 38 40 39 40 40 37 33 29 28
21 22 23 23 24 25 23 24 26 22 22 21 21 21 21 22 22 23 23 27 26 26 25 25 25 26 26 27 27 28 29 30 31 32 34 36 39 41 42 44 45 46 48 49 49 49 49 49 49 49 49 49 48 48 47 46 46 47 48 47 46 44 43 45 45 45 46 46 47 47 46 46 46 47 47 48 46 42 39 39 36 38 31 31 30 31 31 36 37 39 38 37 37 35 30 29 29
22 25 25 25 22 23 24 26 27 22 21 21 21 21 21 22 22 23 23 26 26 26 26 26 26 25 25 26 26 27 28 28 30 33 35 37 39 41 42 44 45 46 47 49 48 48 48 48 48 48 48 47 47 46 46 46 46 46 46 46 46 44 42 41 41 42 43 43 43 44 44 44 45 45 45 44 44 41 36 34 33 30 29 30 31 33 34 37 37 37 36 35 33 33 33 31 29
27 26 25 24 24 25 26 27 28 27 22 21 22 22 21 22 22 23 23 25 26 25 25 25 25 25 25 25 25 26 27 28 31 34 36 37 40 41 42 44 45 46 47 48 48 48 48 47 47 47 47 45 46 46 46 47 46 46 47 46 44 44 43 42 40 39 38 39 40 41 41 41 42 42 41 40 38 36 33 31 29 28 28 30 31 32 34 36 36 36 35 33 31 29 28 28 26
25 26 25 25 25 24 25 25 27 28 24 23 24 22 22 22 22 23 23 23 23 24 24 24 25 25 25 26 26 26 26 29 33 34 36 37 39 40 42 43 45 46 47 48 47 47 47 47 47 47 46 46 47 47 47 48 47 47 46 42 39 40 40 40 38 37 36 38 36 37 38 39 39 38 37 36 33 32 29 29 28 28 28 28 28 29 32 35 34 34 32 29 27 28 26 26 28
26 25 25 24 25 26 26 27 27 27 24 23 24 23 24 24 25 25 25 23 23 23 23 24 24 24 25 25 26 26 27 27 30 32 35 37 39 40 42 43 45 46 47 48 47 47 47 47 47 46 45 45 46 47 47 46 44 41 41 38 37 33 33 35 34 32 32 32 32 33 34 35 36 36 35 33 31 29 28 27 26 26 26 28 27 28 30 31 32 32 31 29 26 24 25 26 25
25 25 24 24 26 23 20 24 28 24 24 24 24 24 24 25 25 25 26 25 25 25 24 24 25 24 24 24 25 26 26 27 27 30 34 36 38 40 41 43 44 46 47 47 47 47 47 46 47 46 45 45 45 46 42 39 37 35 33 32 31 31 30 32 31 33 32 32 30 30 31 33 34 33 33 32 30 27 26 25 24 24 24 26 28 27 27 27 28 29 30 29 27 24 21 21 25
26 26 25 25 25 26 23 22 27 28 28 27 26 26 26 26 26 26 26 29 29 27 27 27 27 28 27 29 29 28 25 26 27 29 32 36 38 39 41 42 44 46 47 48 47 47 47 47 46 45 45 45 44 40 37 35 34 33 32 30 30 29 29 28 30 30 29 29 29 29 28 29 31 31 31 29 27 25 25 22 21 20 20 21 25 25 25 25 26 28 29 29 29 27 19 20 21
26 27 27 26 26 25 25 26 26 26 25 27 25 22 23 25 26 27 28 29 29 29 29 28 28 28 29 27 27 27 30 29 27 28 31 34 36 38 40 42 44 46 47 48 47 47 47 47 46 45 45 45 41 36 35 35 36 35 34 36 36 35 32 33 34 31 28 31 29 26 26 27 28 28 28 28 26 24 22 21 20 18 19 20 23 22 20 19 19 21 24 26 22 23 22 17 17
24 25 28 27 26 26 26 26 26 22 20 25 26 20 21 24 25 25 26 28 28 28 29 29 29 29 29 30 30 29 29 28 29 29 31 34 36 38 40 42 44 45 47 48 47 47 47 46 45 45 44 42 39 35 35 36 35 36 38 40 39 37 36 35 30 29 29 27 25 25 25 25 26 26 25 25 24 23 21 21 20 19 19 19 21 18 17 16 17 16 16 16 17 21 20 20 16
25 27 28 28 27 26 27 26 27 26 25 27 27 26 24 24 25 27 27 27 27 27 27 28 28 29 29 30 30 30 31 29 29 29 31 33 35 37 38 41 43 45 46 47 47 47 47 46 45 44 42 39 38 36 36 38 37 37 39 40 39 39 38 33 25 25 25 24 24 23 23 23 24 24 25 23 23 22 21 21 20 20 19 19 20 17 18 20 21 22 18 17 17 17 18 16 12
27 29 29 28 28 27 26 26 25 25 25 25 25 26 23 24 27 28 29 27 27 27 27 28 28 29 29 30 31 31 31 30 29 30 30 32 34 36 38 40 43 45 47 47 47 47 47 46 45 43 40 38 36 35 36 37 38 39 40 39 39 32 31 27 25 26 24 23 23 23 22 23 23 23 23 23 22 22 22 20 19 19 20 21 21 21 20 19 17 16 15 14 14 18 15 12 11
28 29 29 29 28 27 26 25 26 25 23 24 25 26 19 20 25 26 28 27 27 27 27 27 27 28 29 30 31 32 32 30 29 30 31 33 34 36 38 40 43 45 47 47 47 47 46 45 43 41 39 38 36 35 35 35 37 38 38 37 35 29 25 23 23 23 22 22 22 21 22 22 22 22 22 22 22 21 21 20 19 19 20 21 21 20 20 19 18 17 17 17 18 17 19 15 13
31 30 30 29 27 26 24 25 24 21 20 25 26 26 24 20 25 25 25 27 27 26 26 26 27 28 29 31 32 33 32 30 30 31 32 33 34 37 39 41 43 45 47 47 46 46 45 44 42 40 38 37 35 35 35 35 36 37 37 36 32 28 25 23 22 21 21 21 21 20 21 21 21 21 22 21 21 21 20 21 19 19 20 22 21 19 17 18 20 20 21 20 19 18 20 21 22
31 28 27 28 27 21 21 17 21 19 21 21 24 27 25 21 23 26 27 28 28 25 23 24 25 26 28 31 32 32 31 30 31 31 32 34 35 37 39 41 43 45 46 46 46 44 44 42 40 39 37 36 35 35 35 35 36 36 36 34 31 28 26 25 22 20 20 19 19 20 20 20 20 21 20 20 20 21 21 20 22 21 20 18 18 19 20 20 21 21 20 19 19 20 19 19 18
30 29 28 22 19 18 12 15 17 18 18 19 23 26 25 25 23 25 27 28 28 28 28 27 27 27 29 31 32 31 30 30 31 32 33 34 35 36 39 40 42 44 45 46 45 43 42 41 39 39 37 36 35 34 34 34 34 34 34 32 30 26 25 24 22 20 19 19 18 19 18 18 19 19 19 18 19 20 20 19 19 18 18 19 20 20 21 21 20 19 19 18 18 17 17 16 16
29 29 27 22 14 14 12 11 5 13 16 20 22 23 23 23 25 27 27 27 28 29 29 30 30 30 30 31 31 30 30 31 32 32 33 34 35 36 38 40 42 44 45 45 44 43 41 40 39 39 37 36 35 35 34 33 33 32 31 31 29 27 25 23 22 19 17 18 19 18 17 17 17 16 17 17 19 20 20 18 18 17 19 21 21 20 20 20 19 18 18 17 17 18 18 17 19
29 29 28 26 20 15 10 8 5 10 13 17 20 18 20 19 20 26 28 28 29 30 29 30 31 31 31 31 31 30 29 30 31 32 33 34 35 36 38 40 41 43 44 44 43 42 41 40 38 38 37 35 35 35 34 33 32 31 29 29 27 25 24 22 20 20 16 16 16 17 16 16 16 15 16 17 21 20 18 19 18 19 21 21 21 21 22 20 19 18 18 18 19 19 19 19 19
29 29 29 23 23 17 7 12 10 10 15 16 16 21 23 22 25 28 29 29 29 30 29 30 30 30 31 30 31 31 31 31 32 32 32 34 35 36 37 39 40 42 43 44 43 41 40 39 38 38 37 35 34 34 33 32 31 29 28 27 25 25 24 21 20 19 15 15 15 15 15 15 15 15 17 20 20 19 19 19 20 20 21 21 20 20 19 19 19 18 19 18 19 22 19 18 19
26 29 27 27 26 20 16 17 16 15 11 19 16 23 25 26 25 26 27 27 27 28 28 28 29 29 28 29 30 30 30 31 31 32 32 33 34 35 36 38 39 41 42 43 43 41 40 39 37 37 36 34 33 32 31 30 28 26 26 25 25 24 22 19 17 15 14 14 15 14 14 14 15 16 19 21 20 20 20 19 19 20 20 20 20 19 19 18 18 18 17 18 18 19 18 18 18
29 25 27 29 28 27 22 16 14 16 18 16 19 19 21 20 18 25 26 26 27 27 27 28 28 29 28 29 29 30 30 31 31 31 31 33 35 35 36 37 39 40 42 42 42 41 40 39 37 36 35 33 32 31 30 28 26 25 24 24 23 22 21 18 17 14 13 14 14 14 15 16 15 18 20 22 20 20 20 21 19 20 20 20 19 19 19 19 18 17 18 18 18 18 18 18 18
29 28 30 26 21 19 24 19 14 13 12 17 19 21 22 22 20 22 24 26 26 26 27 28 28 28 29 29 29 29 29 29 30 31 32 33 34 35 36 37 37 39 40 41 42 41 40 39 37 36 35 33 31 30 29 27 25 26 25 23 23 22 20 17 16 15 14 13 13 14 15 15 17 20 21 20 19 19 19 19 19 19 19 19 19 18 19 18 17 17 17 18 18 17 16 16 17
30 30 28 29 28 21 20 23 17 17 11 8 16 17 14 25 24 23 22 25 27 26 27 27 28 28 29 29 30 29 29 30 31 31 32 33 34 35 35 36 37 38 39 40 41 41 40 39 37 36 35 33 31 29 27 25 24 24 25 23 22 22 20 17 15 14 13 13 13 14 15 16 17 20 20 19 19 18 18 18 18 18 18 18 18 18 18 17 16 16 17 17 16 15 15 15 16
27 27 27 28 24 27 26 23 21 18 8 8 13 16 15 24 27 25 24 24 26 27 27 29 29 29 29 30 30 30 30 30 31 31 32 32 33 34 35 35 36 36 36 37 39 40 40 39 37 36 34 32 30 28 26 25 23 22 22 20 19 18 16 16 14 14 13 12 13 15 15 16 19 19 19 19 18 18 18 17 17 18 17 17 17 16 16 15 15 15 15 15 15 14 14 15 15
29 28 28 28 27 22 18 21 25 17 17 19 11 16 19 25 29 27 26 26 27 29 28 29 29 29 30 31 30 30 30 30 30 31 32 32 32 33 33 33 34 35 35 36 37 39 39 38 37 36 34 32 29 27 25 24 22 22 20 18 17 16 15 15 13 13 13 13 14 15 16 18 17 19 19 18 18 18 17 17 16 16 16 16 16 15 14 13 13 14 14 14 13 12 13 14 14